Cut Bank, MT

1:57 PM MST on November 11, 2019 (GMT -0700)
Cut Bank Municipal

Weather History for KCTB - September, 2019

Change the Weather History Date:

Wednesday, September 18, 2019

  Actual Average Record
Temperature  
Mean Temperature 48 °F 53 °F  
Max Temperature 63 °F 67 °F 94 °F (1981)
Min Temperature 32 °F 39 °F 23 °F (1991)
Degree Days  
Heating Degree Days 18 12  
Month to date heating degree days 125 171  
Since 1 July heating degree days 298 365  
Cooling Degree Days 0 0  
Month to date cooling degree days 2 6  
Year to date cooling degree days 106 159  
Moisture  
Dew Point 36 °F    
Average Humidity 63    
Maximum Humidity 93    
Minimum Humidity 32    
Precipitation  
Precipitation 0.34 in 0.04 in 0.55 in (1947)
Month to date precipitation 0.85 0.79  
Year to date precipitation 9.68 9.45  
Snow  
Snow - - - ()
Snow Depth 0.00 in    
Sea Level Pressure  
Sea Level Pressure 29.91 in    
Wind  
Wind Speed 4 mph ()    
Max Wind Speed 10 mph    
Max Gust Speed 12 mph    
Visibility 9.4 miles    
Events Rain    
T = Trace of Precipitation, MM = Missing Value Source: Averaged Metar Reports

Daily Weather History Graph

Daily Weather History Graph

Search for Another Location

Airport or City:

Astronomy

Sep. 18, 2019 Rise Set
Actual Time 7:10 AM MDT 7:36 PM MDT
Civil Twilight 6:38 AM MDT 8:07 PM MDT
Nautical Twilight 6:01 AM MDT 8:44 PM MDT
Astronomical Twilight 5:22 AM MDT 9:23 PM MDT
Moon 9:51 PM MDT (9/18) 11:35 AM MDT (9/18)
Length of Visible Light 13h 28m
Length of Day
12h 25m
Waning Gibbous, 82% of the Moon is Illuminated
Sep 18
Waning Gibbous
Sep 21
Last Quarter
Sep 28
New
Oct 5
First Quarter
Oct 13
Full

Hourly Weather History & Observations

Time (MDT) Temp. Windchill Dew Point Humidity Pressure Visibility Wind Dir Wind Speed Gust Speed Precip Events Conditions
12:56 AM 44.1 °F 40.8 °F 33.1 °F 65% 29.88 in 10.0 mi West 5.8 mph - N/A   Clear
2:56 AM 36.0 °F 31.1 °F 30.9 °F 82% 29.90 in 10.0 mi NNW 5.8 mph - N/A   Clear
3:56 AM 37.0 °F 32.4 °F 32.0 °F 82% 29.88 in 10.0 mi WNW 5.8 mph - N/A   Clear
4:56 AM 35.1 °F 30.1 °F 30.0 °F 82% 29.90 in 10.0 mi North 5.8 mph - N/A   Clear
5:56 AM 35.1 °F 32.2 °F 30.9 °F 85% 29.90 in 10.0 mi SSW 3.5 mph - N/A   Clear
6:56 AM 35.1 °F 31.0 °F 30.9 °F 85% 29.91 in 10.0 mi Variable 4.6 mph - N/A   Clear
7:56 AM 35.1 °F 31.0 °F 30.9 °F 85% 29.92 in 10.0 mi NNW 4.6 mph - N/A   Mostly Cloudy
8:56 AM 44.1 °F 42.5 °F 37.0 °F 76% 29.91 in 10.0 mi NNE 3.5 mph - N/A   Overcast
9:56 AM 46.0 °F 43.1 °F 36.0 °F 68% 29.92 in 10.0 mi NNE 5.8 mph - N/A   Partly Cloudy
10:56 AM 54.0 °F - 35.1 °F 49% 29.91 in 10.0 mi East 5.8 mph - N/A   Scattered Clouds
11:56 AM 60.1 °F - 34.0 °F 38% 29.88 in 10.0 mi Calm Calm - N/A   Overcast
12:56 PM 62.1 °F - 32.0 °F 32% 29.87 in 10.0 mi Variable 3.5 mph - N/A   Overcast
1:56 PM 62.1 °F - 32.0 °F 32% 29.88 in 10.0 mi Calm Calm - N/A   Overcast
2:56 PM 62.1 °F - 34.0 °F 35% 29.88 in 10.0 mi WNW 5.8 mph - N/A   Overcast
3:56 PM 62.1 °F - 35.1 °F 37% 29.87 in 10.0 mi NW 8.1 mph - N/A   Overcast
4:56 PM 62.1 °F - 34.0 °F 35% 29.88 in 10.0 mi NNW 6.9 mph - N/A   Overcast
5:56 PM 62.1 °F - 34.0 °F 35% 29.88 in 10.0 mi NNW 5.8 mph - N/A   Overcast
6:56 PM 57.9 °F - 37.0 °F 46% 29.91 in 10.0 mi NW 6.9 mph - N/A   Overcast
7:56 PM 55.0 °F - 39.0 °F 55% 29.95 in 10.0 mi West 4.6 mph - N/A   Overcast
8:56 PM 50.0 °F - 45.0 °F 83% 29.99 in 5.0 mi WSW 6.9 mph - 0.09 in Rain Rain
9:56 PM 48.9 °F - 46.0 °F 90% 29.99 in 3.0 mi Calm Calm - 0.16 in Rain Rain
10:56 PM 48.9 °F - 45.0 °F 86% 29.96 in 9.0 mi Calm Calm - 0.08 in Rain Light Rain
11:56 PM 48.0 °F - 46.0 °F 93% 29.93 in 10.0 mi North 8.1 mph - 0.01 in Rain Light Rain